Location: Camaret
(48.2753°N, 4.5961°W)
Time: 04:30:03
(UTC+00:00)

COSMO-SKYMED 1 - Pass Details

Date: 29 October 2020
Orbit: 621 x 623 km, 97.9° (Epoch: 01 December)

Event Time Altitude Azimuth Distance (km) Brightness Sun altitude
Rises 18:37:34 0° 12° (NNE) 2,917 5.9 -16.1°
Reaches altitude 10° 18:39:46 10° 12° (NNE) 2,005 5.0 -16.5°
Maximum altitude 18:44:08 82° 287° (WNW) 635 2.6 -17.2°
Drops below altitude 10° 18:48:28 10° 198° (SSW) 1,987 5.4 -17.9°
Sets 18:50:39 0° 198° (SSW) 2,889 6.2 -18.3°
